Miscellaneous Local Product
Issued by NWS Hastings, NE

Home | Current Version | Previous Version | Graphics & Text | Print | Product List | Glossary On
Versions: 1 2 3 4 5 6 7 8 9 10 11 12 13 14 15 16 17 18 19 20 21 22 23 24 25 26 27 28 29 30 31 32 33 34 35 36 37 38 39 40 41 42 43 44 45 46 47 48 49 50
000
AXUS43 KGID 240902
MISGRI

GID CWA HOURLY WEATHER ROUNDUP
NATIONAL WEATHER SERVICE HASTINGS NE
400 AM CDT MON JUL 24 2017

NOTE: "FAIR" INDICATES FEW OR NO CLOUDS BELOW 12,000 FEET WITH NO
SIGNIFICANT WEATHER AND/OR OBSTRUCTIONS TO VISIBILITY.

...SOUTH CENTRAL NEBRASKA...

CITY           SKY/WX    TMP DP  RH WIND       PRES   REMARKS
GRAND ISLAND   CLEAR     65  62  90 SE3       30.02S
HASTINGS       CLEAR     69  60  73 SE7       30.03S
KEARNEY        CLEAR     66  62  87 SE6       30.02F
ORD            CLEAR     66  58  75 SE3       30.01F
YORK           CLEAR     64  63  94 E5        30.02S
AURORA         CLEAR     64  62  94 E5        30.02S
LEXINGTON      CLEAR     69  64  84 SE6       30.03S
HOLDREGE       CLEAR     66  62  85 SE8       30.02S
HEBRON         CLEAR     67  63  87 CALM      30.00S

...NEBRASKA PANHANDLE...

CITY           SKY/WX    TMP DP  RH WIND       PRES   REMARKS
CHADRON        CLEAR     80  50  34 S17       29.90F
ALLIANCE       CLEAR     69  53  56 S9        30.00S
SCOTTSBLUFF    PTCLDY    78  52  40 S12       29.98F
SIDNEY         CLEAR     69  54  58 SW13      30.06F

...WESTERN AND NORTH CENTRAL NEBRASKA...

CITY           SKY/WX    TMP DP  RH WIND       PRES   REMARKS
VALENTINE      CLEAR     69  56  62 SE6       30.01S
AINSWORTH      CLEAR     66  59  77 S9        30.02S
ONEILL         CLEAR     64  60  85 SE5       30.02F
BROKEN BOW     CLEAR     65  62  90 SE5       30.02F
IMPERIAL       CLEAR     68  54  60 SW7       30.03F
NORTH PLATTE   PTCLDY    66  63  90 SE8       30.02F
MCCOOK         CLEAR     69  66  90 SE8       30.01F

...EASTERN NEBRASKA...

CITY           SKY/WX    TMP DP  RH WIND       PRES   REMARKS
NORFOLK        CLEAR     61  58  90 E3        30.02F
SO SIOUX CITY  CLEAR     59  58  96 CALM      30.02S
TEKAMAH        CLEAR     60  57  89 N5        30.00F
COLUMBUS       CLEAR     60  58  92 E6        30.02F
ALBION         CLEAR     62  58  90 CALM      30.03S
OMAHA EPPLEY   CLEAR     64  59  83 CALM      30.01R
OFFUTT AFB     CLEAR     61  58  91 CALM      30.00R
MILLARD        CLEAR     67  63  86 CALM      30.01R
LINCOLN        CLEAR     66  61  84 CALM      30.01S
NEBRASKA CITY  CLEAR     64  64 100 CALM      30.01S
BEATRICE       CLEAR     66  62  85 NE5       30.00S
FALLS CITY     CLEAR     66  62  87 NE5       29.98S

...NORTHERN KANSAS...

CITY           SKY/WX    TMP DP  RH WIND       PRES   REMARKS
GOODLAND       CLEAR     68  58  70 SW7       30.07F
HILL CITY      CLEAR     68  66  93 E3        30.01F
NORTON         SUNNY     68  63  83 E8        30.01F
PHILLIPSBURG   CLEAR     68  68 100 NE6       30.01S
SMITH CENTER   CLEAR     66  61  82 E10       30.00F
HAYS             N/A     68  61  78 E5        30.00F
RUSSELL        CLEAR     69  64  84 SE6       29.98F
CONCORDIA      CLEAR     68  67  96 E3        29.99S
SALINA         CLEAR     78  70  76 NE5       29.96F
TOPEKA         MOCLDY    73  70  90 N5        29.96S



USA.gov is the U.S. government's official web portal to all federal, state and local government web resources and services.